Location: 5810 Zion Rd, Cleves, OH 45002, USA
(39.1922°N, 84.7113°W)
Time: 20:33:22
(UTC-05:00)

Vanguard 3 - Pass Details

Date: 19 December 2019
Orbit: 507 x 3264 km, 33.4° (Epoch: 27 January)

Event Time Altitude Azimuth Distance (km) Brightness Sun altitude
Rises 13:52:49 0° 262° (W) 5,377 11.7 24.9°
Reaches altitude 10° 13:59:19 10° 238° (WSW) 5,000 12.1 24.4°
Maximum altitude 14:04:43 13° 216° (SW) 5,184 13.1 24.0°
Drops below altitude 10° 14:10:52 10° 195° (SSW) 5,800 13.4 23.6°
Sets 14:20:21 0° 172° (S) 7,161 12.9 22.8°
